User: anonymous   Login
Location: Petruro
(41.0333°N, 14.7833°E)
Time: 11:02:04
(UTC+00:00)
Language:

DELTA 2 R/B (1) - Orbit

View from above orbital plane
View from above orbital plane
View from above satellite
View from above satellite

Ground track
Ground track

The orbit data is extracted from the following two-line orbital elements,

1 27665U 03005C   21259.86927719 -.00000052  00000-0  13088-4 0  9994
2 27665  39.5752 123.5539 0010228 278.6625 150.2157 14.28562623972925
Epoch (UTC): 16 September 2021 20:51:45
Eccentricity: 0.0010228
inclination: 39.5752°
perigee height: 789 km
apogee height: 804 km
right ascension of ascending node: 123.5539°
argument of perigee: 278.6625°
revolutions per day: 14.28562623
mean anomaly at epoch: 150.2157°
orbit number at epoch: 97292

The dashed part of the orbit path shows where the satellite is in the earth's shadow,  

DLR